Flag for USA

Past Weather in Bryan – College Station, Texas, USA — Yesterday and Last 2 Weeks

Now
96 °F

Partly sunny.


Feels Like: 106 °F
Forecast: 94 / 79 °F
Wind: 17 mph from South

Location: Easterwood Field

Current Time: Jul 16, 2019 at 5:43:10 pm

Latest Report: Jul 16, 2019 at 4:53 pm


Visibility: 10 mi

Pressure: 29.93 "Hg

Humidity: 47%

Dew Point: 73 °F

Location of Bryan – College StationLocation

Past Weather in Bryan – College Station — Graph

°F

Bryan – College Station Temperature Yesterday

Maximum temperature yesterday: 94 °F (at 1:53 pm)
Minimum temperature yesterday: 78 °F (at 1:53 am)
Average temperature yesterday: 85 °F

High & Low Weather Summary for the Past Weeks

 TemperatureHumidityPressure
High97 °F (Jul 16, 3:53 pm)100% (Jul 3, 7:03 am)30.11 "Hg (Jul 3, 7:03 am)
Low73 °F (Jul 11, 3:53 am)42% (Jul 12, 4:53 pm)29.73 "Hg (Jul 13, 6:53 pm)
Average84 °F75%29.94 "Hg
* Reported Jul 1 3:53 pm — Jul 16 3:53 pm, Bryan – College Station. Weather by CustomWeather, © 2019

Note: Actual official high and low records may vary slightly from our data, if they occured in-between our weather recording intervals... More about our weather records

Advertising

Bryan – College Station Weather History for the Previous 24 Hours

Scroll right to see more
 ConditionsComfort  
Time TempWeatherWind HumidityBarometerVisibility
3:53 pm
Tue, Jul 16
97 °FBroken clouds.13 mph46%29.95 "Hg10 mi
2:53 pm95 °FScattered clouds.17 mph49%29.96 "Hg10 mi
1:53 pm95 °FBroken clouds.10 mph47%29.98 "Hg10 mi
12:53 pm93 °FBroken clouds.12 mph54%29.99 "Hg10 mi
11:53 am90 °FBroken clouds.14 mph59%30.00 "Hg10 mi
10:53 am89 °FSunny.14 mph68%30.00 "Hg10 mi
9:53 am86 °FPartly sunny.12 mph77%30.00 "Hg10 mi
9:28 am84 °FMostly cloudy.9 mph85%30.02 "Hg10 mi
8:53 am82 °FLow clouds.8 mph88%30.00 "Hg10 mi
7:53 am80 °FLow clouds.5 mph94%29.99 "Hg7 mi
6:53 am79 °FLow clouds.5 mph97%29.97 "Hg8 mi
6:16 am79 °FMostly cloudy.5 mph94%29.99 "Hg9 mi
6:00 am79 °FMostly cloudy.6 mph94%29.98 "Hg10 mi
5:04 am79 °FPassing clouds.6 mph94%29.97 "Hg10 mi
4:53 am79 °FPassing clouds.8 mph94%29.95 "Hg10 mi
4:12 am80 °FPassing clouds.8 mph90%29.96 "Hg10 mi
3:53 am80 °FPassing clouds.9 mph90%29.94 "Hg10 mi
3:29 am80 °FPassing clouds.8 mph94%29.96 "Hg10 mi
2:53 am80 °FClear.7 mph90%29.93 "Hg10 mi
2:21 am80 °FPassing clouds.8 mph90%29.96 "Hg10 mi
2:03 am80 °FPassing clouds.8 mph90%29.96 "Hg10 mi
1:53 am81 °FPassing clouds.7 mph88%29.95 "Hg10 mi
12:53 am82 °FClear.10 mph85%29.93 "Hg10 mi
11:53 pm
Mon, Jul 15
83 °FClear.12 mph82%29.92 "Hg10 mi
10:53 pm84 °FClear.10 mph80%29.90 "Hg10 mi
9:53 pm84 °FClear.10 mph83%29.88 "Hg10 mi
8:53 pm84 °FPassing clouds.12 mph80%29.87 "Hg10 mi
7:53 pm87 °FPassing clouds.8 mph69%29.87 "Hg10 mi
6:53 pm90 °FScattered clouds.12 mph63%29.86 "Hg10 mi
5:53 pm92 °FPassing clouds.3 mph56%29.86 "Hg10 mi
Weather by CustomWeather, © 2019

See weather overview

LIVE PARTIAL LUNAR ECLIPSE – Watch the eclipse as it happens